Location: Bamobli
(6.6379°N, 10.9396°W)
Time: 14:18:09
(UTC+00:00)

Cosmos 1980 - Pass Details

Date: 07 June 2020
Orbit: 840 x 846 km, 71.0° (Epoch: 05 July)

Event Time Altitude Azimuth Distance (km) Brightness Sun altitude
Exits shadow 04:51:20 35° 292° (WNW) 1,335 4.4 -22.5°
Drops below altitude 10° 04:56:10 10° 351° (N) 2,450 6.3 -21.4°
Sets 04:58:49 0° 0° (N) 3,382 7.2 -20.9°
